Location: Newark
(53.2000°N, 6.1000°W)
Time: 02:37:02
(UTC+00:00)

ISS - Visible Passes

Search period start: 01 October 2020 00:00
Search period end: 11 October 2020 00:00
Orbit: 419 x 421 km, 51.6° (Epoch: 01 October)

Date Brightness Start Highest point End Pass type
(mag) Time Alt. Az. Time Alt. Az. Time Alt. Az.
01 Oct -3.1 19:02:49 10° W 19:06:06 48° SSW 19:08:40 15° SE visible
01 Oct -1.2 20:40:09 10° WSW 20:41:39 16° SW 20:41:39 16° SW visible
02 Oct -1.9 19:52:33 10° W 19:55:17 23° SSW 19:56:14 20° S visible
03 Oct -2.2 19:05:07 10° W 19:08:07 30° SSW 19:10:53 11° SE visible
04 Oct -1.0 19:55:44 10° WSW 19:57:03 12° SW 19:58:22 10° SSW visible
05 Oct -1.2 19:07:42 10° WSW 19:09:56 17° SW 19:12:10 10° S visible
06 Oct -1.5 18:20:04 10° W 18:22:47 23° SSW 18:25:29 10° SSE visible
08 Oct -0.7 18:23:11 10° WSW 18:24:27 12° SW 18:25:44 10° SSW visible
